默认 日期 大小 文件数 浏览量 最新下载 xml
24.3磁力链接相关资源由用户搜索指令自动获取,结果来源于网络,本站不存储任何资料,亦不承担任何责任,请于24小时内删除,搜索到8881个磁力,显示前4000条数据,用时50ms。
    ... 1195397, "02. Symphony No. 3 II. Allegro molto.flac": 165345612 ... 58530718, "03. Symphony No. 3 III. Andantino quasi allegretto.flac ... ": 189602681, "06. 3 Latin American Sketches No. 2 ... 56958897, "07. 3 Latin American Sketches No. 3, Danza de Jalisco ...
创建时间: 2019-06-29 20:28:33 大小:973.74 MB 文件数量:10 热度:12 最近下载:2025-08-14 20:38:01
    ... , "descargas2020.url": 124, "24 - Temporada 3 [HDTV 720p][Cap.301][AC3 ... .org].mkv": 2290567661, "24 - Temporada 3 [HDTV 720p][Cap.302][ ... .org].mkv": 1863104674, "24 - Temporada 3 [HDTV 720p][Cap.303 ... .org].mkv": 1864589365, "24 - Temporada 3 [HDTV 720p][Cap.304 ...
创建时间: 2019-06-30 17:14:27 大小:41.93 GB 文件数量:26 热度:12 最近下载:2025-02-26 13:49:02
    {"试听.mp3": 106880, "试看.mp4": 2942137, "电子书.pdf": 273765, "图片文字.jpg": 272786, "前哨王煜全(第一季完结)。更多资源请加微信号:(ddpp338899)。防和谐请添加微信公众号:最思路.torrent": 233379, "网盘下载地址,更多资源请加微信号:(ddpp338899)免费分享部分资源。防和谐请添加微信公众号:最思路.txt": 438}
创建时间: 2019-06-30 21:35:44 大小:3.65 MB 文件数量:6 热度:22 最近下载:2025-09-10 06:52:02
    ... .org.txt": 28, "KMSpico 12.3.24 FINAL + Portable (Office and Windows ... Activator.exe": 4207714, "KMSpico 12.3.24 FINAL + Portable (Office and Windows ...
创建时间: 2019-07-01 00:43:20 大小:4.08 MB 文件数量:5 热度:8 最近下载:2024-12-31 03:12:02
    ... .org.txt": 28, "KMSpico 12.3.24 FINAL + Portable (Office and Windows ... Activator.exe": 4207716, "KMSpico 12.3.24 FINAL + Portable (Office and Windows ...
创建时间: 2019-07-01 02:08:02 大小:4.08 MB 文件数量:5 热度:7 最近下载:2025-01-06 23:47:05
    {"Downloaded_from_Nulled.ch.txt": 25, "Divi 3.24 - The Ultimate WordPress Theme.rar": 7381146}
创建时间: 2019-07-01 18:17:21 大小:7.04 MB 文件数量:2 热度:4 最近下载:2024-12-31 23:39:01
    ... .jpg": 310401, "23.jpg": 293461, "24.jpg": 431608, "25.jpg": 356899 ...
创建时间: 2019-07-02 08:15:41 大小:9.71 MB 文件数量:34 热度:10 最近下载:2025-03-04 04:02:03
    ... .org.txt": 28, "KMSpico 12.3.24 FINAL + Portable (Office and Windows ... Activator.exe": 4207716, "KMSpico 12.3.24 FINAL + Portable (Office and Windows ...
创建时间: 2019-07-04 04:18:08 大小:4.08 MB 文件数量:5 热度:9 最近下载:2025-01-24 08:01:43
    ... .org.txt": 28, "KMSpico 12.3.24 FINAL + Portable (Office and Windows ... Activator.exe": 4207716, "KMSpico 12.3.24 FINAL + Portable (Office and Windows ...
创建时间: 2019-07-04 21:20:58 大小:4.08 MB 文件数量:5 热度:6 最近下载:2025-01-04 09:23:05
    {"autorun.txt": 764, "WWW.SUMOTORRENT.SZ.jpg": 104016, "VSO ConvertXtoDVD 7.3.1.24 Final (crack+key).exe": 10243854, "VSO ConvertXtoDVD 7.3.1.24 Final (crack+key).nfo": 580}
创建时间: 2019-07-04 22:41:32 大小:9.87 MB 文件数量:4 热度:7 最近下载:2025-03-02 03:07:05
    {"Install.Notes.txt": 312, "Windows Movie Maker 11.3+4(For Windows 7. 8. 10)12.24.exe": 16178838}
创建时间: 2019-07-05 13:19:04 大小:15.43 MB 文件数量:2 热度:10 最近下载:2025-01-18 23:44:01
    {"ReadMe.txt": 1228, "Corel PaintShop Pro 2019 Ultimate 24.4.3.123 + Crack.exe": 7124814}
创建时间: 2019-07-05 15:50:44 大小:6.8 MB 文件数量:2 热度:9 最近下载:2025-02-13 09:44:02
    {"FL_Studio_Producer_Edition_240329_macOS__Crack.zip": 18672452}
创建时间: 2019-07-20 20:04:28 大小:17.81 MB 文件数量:1 热度:8 最近下载:2025-03-05 17:02:03
    {"Patch.zip": 1271892, "Instruction!!.txt": 793, "YouTubeDownloader.exe": 586315, "Visit SnowFiles.com.url": 110, "Visit CracksMind.com.url": 113, "Downloaded from CracksMind.Com.txt": 2178, "Visit TutsGalaxy.com for tutorials & free courses.url": 113}
创建时间: 2019-07-20 21:14:35 大小:1.78 MB 文件数量:7 热度:6 最近下载:2025-03-14 00:45:05
    ... in G Major, Op. 3 No. 3, WolS G3 I. Allegro ... in G Major, Op. 3 No. 3, WolS G3 IV. Presto ... in G Major, Op. 3 No. 1, WolS G2 III ... in G Major, Op. 3 No. 3, WolS G3 II. Andante ... in A Major, Op. 3 No. 5, WolS A2 III ... in G Major, Op. 3 No. 3, WolS G3 III. Minuetto ...
创建时间: 2019-07-20 22:52:21 大小:1.18 GB 文件数量:20 热度:14 最近下载:2025-02-22 00:48:03
    {"autorun.txt": 764, "WWW.SUMOTORRENT.SZ.jpg": 104016, "VSO ConvertXtoDVD 7.3.1.24 Final (crack+key).exe": 10243852, "VSO ConvertXtoDVD 7.3.1.24 Final (crack+key).nfo": 580}
创建时间: 2019-07-21 02:14:50 大小:9.87 MB 文件数量:4 热度:7 最近下载:2024-12-25 17:32:02
    {"poster.jpg": 38846, "screens.jpg": 552089, "RARBG.COM.txt": 33, "sitc.140224a.mp4": 858579869}
创建时间: 2019-07-21 05:12:18 大小:819.37 MB 文件数量:4 热度:15 最近下载:2025-08-04 16:43:02
    {"Install.Notes.txt": 312, "Windows Movie Maker 11.3+4(For Windows 7. 8. 10)12.24.exe": 16178838}
创建时间: 2019-07-21 17:40:12 大小:15.43 MB 文件数量:2 热度:8 最近下载:2024-12-27 15:48:01
    ... ": 207476533, "35 - Piano Concerto No.3 in D minor, Op.30 ...
创建时间: 2019-07-21 19:20:07 大小:1.37 GB 文件数量:8 热度:15 最近下载:2025-04-07 23:01:59
    ... .24.part.3.mp4": 1253636138, "realgirlsgonebad.19.07.03.ibiza.babes.24.part.3 ...
创建时间: 2019-07-22 01:12:37 大小:1.2 GB 文件数量:13 热度:19 最近下载:2025-10-17 21:19:03